Tenjinmaru No11 — JD3353 — position and weather

sailwx.info

Track history (hours):
 
Tides and Currents Weather Stations Pressure Air Temp Water Temp Dewpoint Dewpoint Depression Visibility Wind Speed Wind Dir Waves Ship Positions

Tenjinmaru No11

Last reported at 2014-Oct-21 06:33 UTC. Time now 2014-Oct-22 01:43 UTC.
Position N 35°16' E 139°46'.

Length 75 m; draft 4.2 m.

Type: Cargo ship. MMSI: 431003485.

Date/timePositionNaut miles runAvg speedWind from/ knotsBaromVisibWave heightAir tempDewpointWater temp
2014-Oct-21 06:33N 35°16' E 139°46'9 9.4
2014-Oct-21 05:32N 35°25' E 139°45'7 0.7
2014-Oct-20 20:10N 35°21' E 139°51'0 0.0
2014-Oct-20 18:16N 35°21' E 139°51'1 1.8
2014-Oct-20 17:34N 35°22' E 139°50'0 0.0
2014-Oct-20 16:34N 35°22' E 139°50'0 0.0
2014-Oct-20 15:34N 35°22' E 139°50'0 0.0
2014-Oct-20 14:34N 35°22' E 139°50'0 0.0
2014-Oct-20 13:33N 35°22' E 139°50'0 0.0
2014-Oct-20 12:34N 35°22' E 139°50'0 0.0
2014-Oct-20 11:34N 35°22' E 139°50'0 0.0
2014-Oct-20 10:34N 35°22' E 139°50'0 0.1
2014-Oct-20 09:33N 35°22' E 139°50'17 1.4
2014-Oct-19 21:15N 35°37' E 139°58'0 0.0
2014-Oct-19 20:33N 35°37' E 139°58'0 0.0
2014-Oct-19 19:33N 35°37' E 139°58'0 0.0
2014-Oct-19 18:34N 35°37' E 139°58'13 6.5
2014-Oct-19 16:33N 35°27' E 139°49'1110.7
2014-Oct-19 15:33N 35°16' E 139°46'1110.6
2014-Oct-19 14:32N 35°06' E 139°42'  
2014-Oct-16 19:09N 33°50' E 132°24'103 2.5
2014-Oct-15 01:15N 33°49' E 130°20'810.9
2014-Oct-15 00:33N 33°45' E 130°12'  
Track history (hours):
 
Tides and Currents Weather Stations Pressure Air Temp Water Temp Dewpoint Dewpoint Depression Visibility Wind Speed Wind Dir Waves Ship Positions

Tenjinmaru No11

Last reported at 2014-Oct-21 06:33 UTC. Time now 2014-Oct-22 01:43 UTC.
Position N 35°16' E 139°46'.

Length 75 m; draft 4.2 m.

Type: Cargo ship. MMSI: 431003485.

Date/timePositionNaut miles runAvg speedWind from/ knotsBaromVisibWave heightAir tempDewpointWater temp
2014-Oct-21 06:33N 35°16' E 139°46'9 9.4
2014-Oct-21 05:32N 35°25' E 139°45'7 0.7
2014-Oct-20 20:10N 35°21' E 139°51'0 0.0
2014-Oct-20 18:16N 35°21' E 139°51'1 1.8
2014-Oct-20 17:34N 35°22' E 139°50'0 0.0
2014-Oct-20 16:34N 35°22' E 139°50'0 0.0
2014-Oct-20 15:34N 35°22' E 139°50'0 0.0
2014-Oct-20 14:34N 35°22' E 139°50'0 0.0
2014-Oct-20 13:33N 35°22' E 139°50'0 0.0
2014-Oct-20 12:34N 35°22' E 139°50'0 0.0
2014-Oct-20 11:34N 35°22' E 139°50'0 0.0
2014-Oct-20 10:34N 35°22' E 139°50'0 0.1
2014-Oct-20 09:33N 35°22' E 139°50'17 1.4
2014-Oct-19 21:15N 35°37' E 139°58'0 0.0
2014-Oct-19 20:33N 35°37' E 139°58'0 0.0
2014-Oct-19 19:33N 35°37' E 139°58'0 0.0
2014-Oct-19 18:34N 35°37' E 139°58'13 6.5
2014-Oct-19 16:33N 35°27' E 139°49'1110.7
2014-Oct-19 15:33N 35°16' E 139°46'1110.6
2014-Oct-19 14:32N 35°06' E 139°42'  
2014-Oct-16 19:09N 33°50' E 132°24'103 2.5
2014-Oct-15 01:15N 33°49' E 130°20'810.9
2014-Oct-15 00:33N 33°45' E 130°12'  

Dump ship's entire track history